📊 Raw Sensor Data
Showing records 49376 to 49400 of 85,118 total
| ID | Distance (ft) | Battery V | Battery A | Int Temp (°F) | Int Humid (%) | Ext Temp (°F) | Solar V | RSSI | SNR | Time Stamp |
|---|---|---|---|---|---|---|---|---|---|---|
| 35755 | -- | 4.04 | -5 | 50 | 40 | 51 | 0.00 | -82 | 8 | 03/23/2025 12:15 AM |
| 35754 | -- | 3.99 | -5 | 49 | 40 | 51 | 0.00 | -83 | 8 | 03/23/2025 12:00 AM |
| 35753 | -- | 3.99 | -5 | 50 | 41 | 51 | 0.10 | -84 | 9 | 03/22/2025 11:45 PM |
| 35752 | -- | 3.99 | -5 | 50 | 40 | 51 | 0.00 | -83 | 7 | 03/22/2025 11:30 PM |
| 35751 | -- | 3.99 | -5 | 51 | 40 | 52 | 0.00 | -82 | 7 | 03/22/2025 11:15 PM |
| 35750 | -- | 3.99 | -5 | 51 | 40 | 52 | 0.00 | -83 | 7 | 03/22/2025 11:00 PM |
| 35749 | -- | 4.00 | -5 | 51 | 40 | 53 | 0.10 | -83 | 7 | 03/22/2025 10:45 PM |
| 35748 | -- | 3.99 | -5 | 52 | 40 | 53 | 0.00 | -85 | 8 | 03/22/2025 10:30 PM |
| 35747 | -- | 4.00 | -5 | 52 | 41 | 53 | 0.00 | -84 | 8 | 03/22/2025 10:15 PM |
| 35746 | -- | 4.00 | -5 | 51 | 41 | 54 | 0.00 | -82 | 7 | 03/22/2025 10:01 PM |
| 35745 | -- | 4.00 | -5 | 51 | 41 | 53 | 0.00 | -82 | 7 | 03/22/2025 09:46 PM |
| 35744 | -- | 4.00 | -5 | 51 | 42 | 53 | 0.00 | -82 | 8 | 03/22/2025 09:30 PM |
| 35743 | -- | 4.00 | -5 | 52 | 42 | 53 | 0.00 | -82 | 8 | 03/22/2025 09:15 PM |
| 35742 | -- | 4.00 | -5 | 53 | 43 | 54 | 0.00 | -82 | 7 | 03/22/2025 09:00 PM |
| 35741 | -- | 4.05 | -5 | 53 | 43 | 55 | 0.00 | -83 | 8 | 03/22/2025 08:45 PM |
| 35740 | 15.1 | 4.00 | -5 | 54 | 44 | 56 | 0.00 | -83 | 8 | 03/22/2025 08:30 PM |
| 35739 | -- | 4.00 | -5 | 55 | 45 | 56 | 0.00 | -82 | 7 | 03/22/2025 08:15 PM |
| 35738 | -- | 4.06 | -5 | 56 | 46 | 57 | 0.00 | -83 | 7 | 03/22/2025 08:01 PM |
| 35737 | -- | 4.01 | -5 | 58 | 47 | 57 | 0.00 | -82 | 7 | 03/22/2025 07:45 PM |
| 35736 | 15.2 | 4.01 | -5 | 61 | 48 | 59 | 0.70 | -83 | 7 | 03/22/2025 07:30 PM |
| 35735 | -- | 4.00 | -17 | 65 | 46 | 61 | 4.20 | -83 | 8 | 03/22/2025 07:16 PM |
| 35734 | -- | 4.07 | -5 | 70 | 44 | 63 | 4.50 | -84 | 8 | 03/22/2025 07:00 PM |
| 35733 | 15.2 | 4.03 | 0 | 72 | 44 | 64 | 4.50 | -84 | 8 | 03/22/2025 06:45 PM |
| 35732 | -- | 4.06 | -10 | 74 | 43 | 65 | 4.50 | -84 | 8 | 03/22/2025 06:30 PM |
| 35731 | -- | 4.09 | 16 | 75 | 42 | 65 | 4.50 | -83 | 8 | 03/22/2025 06:15 PM |